Burlington, CO

7:44 AM MST on January 21, 2017 (GMT -0700)
Burlington

Weather History for KITR - September, 2013

Change the Weather History Date:

Thursday, September 19, 2013

  Actual Average Record
Temperature  
Mean Temperature 61 °F 62 °F  
Max Temperature 71 °F 77 °F 98 °F (1920)
Min Temperature 51 °F 47 °F 33 °F (2003)
Degree Days  
Heating Degree Days 4    
Growing Degree Days 12 (Base 50)    
Moisture  
Dew Point 52 °F    
Average Humidity 72    
Maximum Humidity 93    
Minimum Humidity 46    
Precipitation  
Precipitation 0.00 in 0.03 in 1.70 in (1965)
Month to date precipitation 5.30 0.79  
Year to date precipitation 15.75 14.94  
Sea Level Pressure  
Sea Level Pressure 29.93 in    
Wind  
Wind Speed 9 mph (North)    
Max Wind Speed 22 mph    
Max Gust Speed 29 mph    
Visibility 10 miles    
Events      
T = Trace of Precipitation, MM = Missing Value Source: NWS Daily Summary

Daily Weather History Graph

Daily Weather History Graph

Search for Another Location

Airport or City:

Trip Planner

Search our weather history database for the weather conditions in past years. The results will help you decide how hot, cold, wet, or windy it might be!

Date:

Astronomy

Sep. 19, 2013 Rise Set
Actual Time 6:34 AM MDT 6:50 PM MDT
Civil Twilight 6:07 AM MDT 7:17 PM MDT
Nautical Twilight 5:36 AM MDT 7:48 PM MDT
Astronomical Twilight 5:04 AM MDT 8:20 PM MDT
Moon 6:50 PM MDT (9/19) 6:45 AM MDT (9/19)
Length of Visible Light 13h 09m
Length of Day
12h 16m
Full, 100% of the Moon is Illuminated
Sep 19
Full
Sep 26
Last Quarter
Oct 4
New
Oct 11
First Quarter
Oct 18
Full

Hourly Weather History & Observations

Time (MDT) Temp. Dew Point Humidity Pressure Visibility Wind Dir Wind Speed Gust Speed Precip Events Conditions
12:53 AM 62.1 °F 55.9 °F 80% 29.71 in 10.0 mi North 4.6 mph - N/A   Clear
1:53 AM 60.1 °F 55.0 °F 83% 29.72 in 10.0 mi WNW 4.6 mph - N/A   Clear
2:53 AM 59.0 °F 55.9 °F 90% 29.74 in 10.0 mi WSW 5.8 mph - N/A   Clear
3:53 AM 60.1 °F 55.9 °F 86% 29.73 in 10.0 mi Calm Calm - N/A   Partly Cloudy
4:53 AM 59.0 °F 57.0 °F 93% 29.75 in 10.0 mi West 4.6 mph - N/A   Partly Cloudy
5:53 AM 60.1 °F 57.0 °F 90% 29.77 in 10.0 mi West 5.8 mph - N/A   Mostly Cloudy
6:53 AM 59.0 °F 55.9 °F 90% 29.81 in 10.0 mi WSW 5.8 mph - N/A   Clear
7:53 AM 61.0 °F 55.0 °F 81% 29.85 in 10.0 mi NW 11.5 mph - N/A   Clear
8:53 AM 64.0 °F 55.9 °F 75% 29.91 in 10.0 mi NNW 16.1 mph 21.9 mph N/A   Clear
9:13 AM 62.6 °F 55.4 °F 77% 30.05 in 10.0 mi North 18.4 mph 25.3 mph N/A   Mostly Cloudy
9:53 AM 61.0 °F 53.1 °F 75% 29.95 in 10.0 mi North 20.7 mph 26.5 mph N/A   Overcast
10:53 AM 62.1 °F 48.0 °F 60% 29.96 in 10.0 mi NNE 19.6 mph 27.6 mph N/A   Overcast
11:28 AM 64.4 °F 46.4 °F 52% 30.08 in 10.0 mi NNE 21.9 mph 28.8 mph N/A   Scattered Clouds
11:53 AM 64.9 °F 48.0 °F 54% 29.95 in 10.0 mi NNE 18.4 mph 25.3 mph N/A   Partly Cloudy
12:53 PM 68.0 °F 48.0 °F 49% 29.95 in 10.0 mi NE 18.4 mph 25.3 mph N/A   Clear
1:53 PM 70.0 °F 48.0 °F 46% 29.94 in 10.0 mi NNE 16.1 mph 25.3 mph N/A   Clear
2:53 PM 70.0 °F 50.0 °F 49% 29.95 in 10.0 mi North 16.1 mph 25.3 mph N/A   Scattered Clouds
3:53 PM 68.0 °F 48.9 °F 50% 29.96 in 10.0 mi NNE 13.8 mph - N/A   Mostly Cloudy
4:53 PM 66.0 °F 48.9 °F 54% 29.97 in 10.0 mi North 13.8 mph 20.7 mph N/A   Overcast
5:53 PM 64.9 °F 48.9 °F 56% 29.98 in 10.0 mi North 8.1 mph - N/A   Partly Cloudy
6:53 PM 60.1 °F 48.0 °F 64% 30.01 in 10.0 mi NNE 10.4 mph 19.6 mph N/A   Clear
7:53 PM 55.9 °F 48.9 °F 77% 30.04 in 10.0 mi NNE 8.1 mph - N/A   Scattered Clouds
8:53 PM 53.1 °F 48.9 °F 86% 30.07 in 10.0 mi ENE 5.8 mph - N/A   Scattered Clouds
9:53 PM 55.0 °F 50.0 °F 83% 30.10 in 10.0 mi Calm Calm - N/A   Scattered Clouds
10:53 PM 54.0 °F 48.9 °F 83% 30.11 in 10.0 mi Calm Calm - N/A   Scattered Clouds
11:53 PM 53.1 °F 48.9 °F 86% 30.11 in 10.0 mi Calm Calm - N/A   Mostly Cloudy